Location: Laura�t
(43.9341°N, 0.2497°E)
Time: 00:12:05
(UTC+00:00)

H-2A R/B - Pass Details

Date: 03 March 2021
Orbit: 578 x 654 km, 98.5° (Epoch: 17 April)

Event Time Altitude Azimuth Distance (km) Brightness Sun altitude
Rises 18:32:06 0° 2° (N) 2,805 5.4 -8.3°
Reaches altitude 10° 18:34:30 10° 350° (N) 1,900 4.7 -8.8°
Maximum altitude 18:37:56 27° 293° (WNW) 1,143 4.3 -9.4°
Drops below altitude 10° 18:41:22 10° 236° (SW) 1,896 5.5 -10.0°
Sets 18:43:46 0° 224° (SW) 2,798 6.1 -10.4°
